DW1298 Weather Reports


time (UTC)temp
C
wind
direction
speed
KPH
gust
KPH
rain 1hr
cm
rain 24hr
cm
rain mn
cm
humidity
%
barometer
mb
20220526170056 21 0 0.0 9.7 0.00 0.00 0.00 77 1019.2
20220526165541 21 0 0.0 11.3 0.00 0.00 0.00 76 1019.2
20220526165038 21 192 1.6 12.9 0.00 0.00 0.00 76 1019.2
20220526164605 21 184 3.2 12.9 0.00 0.00 0.00 75 1019.3
20220526164042 21 167 4.8 12.9 0.00 0.00 0.00 75 1019.3
20220526163540 21 0 3.2 12.9 0.00 0.00 0.00 74 1019.3
20220526163052 21 198 1.6 12.9 0.00 0.00 0.00 73 1019.2
20220526162540 21 142 3.2 12.9 0.00 0.00 0.00 72 1019.3
20220526162039 22 0 0.0 11.3 0.00 0.00 0.00 71 1019.3
20220526161603 22 225 0.0 11.3 0.00 0.00 0.00 71 1019.2
20220526161040 22 0 0.0 8.0 0.00 0.00 0.00 70 1019.2
20220526160051 22 0 0.0 8.0 0.00 0.00 0.00 67 1019.0
20220526155542 22 0 0.0 9.7 0.00 0.00 0.00 67 1019.0
20220526155039 22 159 0.0 9.7 0.00 0.00 0.00 67 1018.9
20220526154605 22 0 0.0 11.3 0.00 0.00 0.00 68 1018.9
20220526154042 22 0 0.0 11.3 0.00 0.00 0.00 70 1019.1
20220526153538 22 165 0.0 9.7 0.00 0.00 0.00 70 1019.1
20220526153050 22 173 0.0 9.7 0.00 0.00 0.00 71 1019.1
20220526152538 22 0 0.0 9.7 0.00 0.00 0.00 71 1019.2
20220526152039 22 0 1.6 9.7 0.00 0.00 0.00 70 1019.3
20220526151552 22 0 0.0 8.0 0.00 0.00 0.00 71 1019.2
20220526151039 22 0 0.0 11.3 0.00 0.00 0.00 71 1019.3
20220526150543 22 238 1.6 12.9 0.00 0.00 0.00 71 1019.3
20220526150104 22 186 0.0 12.9 0.00 0.00 0.00 71 1019.3
20220526145539 22 0 0.0 9.7 0.00 0.00 0.00 71 1019.3
20220526145041 22 0 1.6 9.7 0.00 0.00 0.00 70 1019.3
20220526144603 22 0 0.0 11.3 0.00 0.00 0.00 70 1019.3
20220526144040 22 0 1.6 11.3 0.00 0.00 0.00 70 1019.3
20220526143539 22 177 3.2 11.3 0.00 0.00 0.00 68 1019.3
20220526143057 22 0 0.0 8.0 0.00 0.00 0.00 65 1019.4
20220526142539 22 217 0.0 8.0 0.00 0.00 0.00 63 1019.5
20220526142040 22 0 0.0 8.0 0.00 0.00 0.00 61 1019.5
20220526141549 23 0 0.0 6.4 0.00 0.00 0.00 60 1019.5
20220526141039 22 0 0.0 8.0 0.00 0.00 0.00 61 1019.7
20220526140539 22 0 1.6 9.7 0.00 0.00 0.00 61 1019.8
20220526140102 23 188 0.0 9.7 0.00 0.00 0.00 60 1019.9
20220526135538 23 0 1.6 9.7 0.00 0.00 0.00 56 1019.9
20220526135039 23 163 1.6 8.0 0.00 0.00 0.00 49 1019.8
20220526134603 23 0 0.0 8.0 0.00 0.00 0.00 48 1019.9
20220526134038 23 0 0.0 9.7 0.00 0.00 0.00 50 1020.0
20220526133543 23 173 1.6 9.7 0.00 0.00 0.00 53 1020.0
20220526133049 23 0 0.0 8.0 0.00 0.00 0.00 56 1020.1
20220526132539 23 0 0.0 6.4 0.00 0.00 0.00 60 1020.2
20220526132040 22 0 0.0 6.4 0.00 0.00 0.00 61 1020.2
20220526131552 22 180 0.0 8.0 0.00 0.00 0.00 62 1020.3
20220526131039 22 180 0.0 8.0 0.00 0.00 0.00 65 1020.3
20220526130540 22 0 0.0 8.0 0.00 0.00 0.00 66 1020.3
20220526130102 22 0 0.0 8.0 0.00 0.00 0.00 66 1020.3
20220526125539 22 0 0.0 14.5 0.00 0.00 0.00 64 1020.4
20220526125038 22 0 0.0 16.1 0.00 0.00 0.00 62 1020.4
20220526124601 22 193 1.6 16.1 0.00 0.00 0.00 62 1020.4
20220526124040 23 200 0.0 4.8 0.00 0.00 0.00 60 1020.7
20220526123538 22 0 0.0 6.4 0.00 0.00 0.00 60 1020.6
20220526123103 23 131 0.0 6.4 0.00 0.00 0.00 59 1020.6
20220526122538 23 0 0.0 4.8 0.00 0.00 0.00 61 1020.7
20220526122044 23 0 0.0 4.8 0.00 0.00 0.00 54 1020.7
20220526121559 23 221 0.0 3.2 0.00 0.00 0.00 54 1020.8
20220526121039 23 0 0.0 4.8 0.00 0.00 0.00 52 1020.8
20220526120540 22 0 0.0 8.0 0.00 0.00 0.00 58 1020.7
20220526120050 22 173 1.6 8.0 0.00 0.00 0.00 61 1020.6
20220526115539 22 0 0.0 8.0 0.00 0.00 0.00 60 1020.8
20220526115040 23 146 1.6 8.0 0.00 0.00 0.00 58 1020.8
20220526114556 23 0 0.0 4.8 0.00 0.00 0.00 55 1020.9
20220526114038 23 0 0.0 4.8 0.00 0.00 0.00 54 1020.9
20220526113539 22 0 0.0 8.0 0.00 0.00 0.00 54 1020.9
20220526113108 22 0 1.6 8.0 0.00 0.00 0.00 58 1020.7
20220526112542 22 171 0.0 8.0 0.00 0.00 0.00 61 1021.0
20220526112039 22 294 0.0 4.8 0.00 0.00 0.00 63 1021.3
20220526111555 22 0 0.0 4.8 0.00 0.00 0.00 62 1021.3
20220526111040 22 0 0.0 6.4 0.00 0.00 0.00 63 1021.2
20220526110541 22 166 0.0 6.4 0.00 0.00 0.00 62 1021.3
20220526110056 22 192 0.0 8.0 0.00 0.00 0.00 62 1021.1
20220526105539 22 0 1.6 8.0 0.00 0.00 0.00 59 1021.3
20220526105042 23 173 0.0 4.8 0.00 0.00 0.00 58 1021.3
20220526104559 23 0 0.0 4.8 0.00 0.00 0.00 59 1021.3
20220526104040 23 159 1.6 4.8 0.00 0.00 0.00 59 1021.2
20220526103539 23 0 0.0 4.8 0.00 0.00 0.00 57 1021.3
20220526103113 23 0 0.0 6.4 0.00 0.00 0.00 57 1021.3
20220526102540 23 0 0.0 8.0 0.00 0.00 0.00 59 1021.3
20220526102039 22 169 0.0 8.0 0.00 0.00 0.00 55 1021.1
20220526101547 22 180 1.6 6.4 0.00 0.00 0.00 59 1021.1
20220526101042 22 186 1.6 6.4 0.00 0.00 0.00 57 1021.1
20220526100540 23 185 1.6 4.8 0.00 0.00 0.00 55 1021.2
20220526100046 23 180 0.0 3.2 0.00 0.00 0.00 58 1021.2
20220526095542 22 0 0.0 0.0 0.00 0.00 0.00 55 1021.3
20220526095039 22 0 0.0 0.0 0.00 0.00 0.00 58 1021.1
20220526094546 22 0 0.0 0.0 0.00 0.00 0.00 57 1021.0
20220526094039 22 0 0.0 0.0 0.00 0.00 0.00 60 1020.9
20220526093537 22 0 0.0 0.0 0.00 0.00 0.00 60 1020.9
20220526093045 22 0 0.0 0.0 0.00 0.00 0.00 63 1020.9
20220526092542 22 0 0.0 0.0 0.00 0.00 0.00 61 1021.0
20220526092039 22 0 0.0 0.0 0.00 0.00 0.00 59 1020.9
20220526091554 22 0 0.0 0.0 0.00 0.00 0.00 49 1020.7
20220526091043 22 0 0.0 0.0 0.00 0.00 0.00 49 1020.8
20220526090537 22 0 0.0 0.0 0.00 0.00 0.00 55 1020.9
20220526090059 21 0 0.0 0.0 0.00 0.00 0.00 54 1021.0
20220526085536 21 0 0.0 0.0 0.00 0.00 0.00 54 1020.9
20220526085039 21 0 0.0 0.0 0.00 0.00 0.00 58 1020.9
20220526084555 21 0 0.0 0.0 0.00 0.00 0.00 57 1021.0
20220526084036 21 0 0.0 0.0 0.00 0.00 0.00 57 1020.9
20220526083539 21 0 0.0 0.0 0.00 0.00 0.00 58 1020.9
20220526083054 21 0 0.0 0.0 0.00 0.00 0.00 60 1021.1
20220526082537 21 0 0.0 1.6 0.00 0.00 0.00 56 1021.0
20220526082037 21 0 0.0 1.6 0.00 0.00 0.00 57 1021.0
20220526081550 20 0 0.0 3.2 0.00 0.00 0.00 54 1021.1
20220526081037 20 0 0.0 3.2 0.00 0.00 0.00 59 1021.0
20220526080538 21 190 0.0 3.2 0.00 0.00 0.00 58 1021.1
20220526080053 21 0 0.0 1.6 0.00 0.00 0.00 55 1021.0
20220526075537 21 0 0.0 1.6 0.00 0.00 0.00 53 1020.7
20220526075036 21 0 0.0 1.6 0.00 0.00 0.00 51 1020.7
20220526074547 22 0 0.0 3.2 0.00 0.00 0.00 44 1020.7
20220526074040 21 0 0.0 9.7 0.00 0.00 0.00 44 1020.6
20220526073542 21 0 0.0 9.7 0.00 0.00 0.00 45 1020.7
20220526073104 21 360 1.6 17.7 0.00 0.00 0.00 47 1020.6
20220526072542 21 51 0.0 17.7 0.00 0.00 0.00 47 1020.7
20220526072039 21 0 1.6 17.7 0.00 0.00 0.00 47 1020.7
20220526071602 20 0 0.0 14.5 0.00 0.00 0.00 48 1020.6
20220526071039 20 343 1.6 14.5 0.00 0.00 0.00 48 1020.7
20220526070541 20 309 0.0 14.5 0.00 0.00 0.00 48 1020.8
20220526070053 20 0 0.0 0.0 0.00 0.00 0.00 49 1020.8
20220526065539 20 0 0.0 0.0 0.00 0.00 0.00 49 1020.7
20220526065038 20 0 0.0 0.0 0.00 0.00 0.00 47 1020.8
20220526064547 20 0 0.0 0.0 0.00 0.00 0.00 49 1020.7
20220526064040 20 0 0.0 0.0 0.00 0.00 0.00 50 1020.7
20220526063539 20 0 0.0 0.0 0.00 0.00 0.00 50 1020.7
20220526063045 20 0 0.0 0.0 0.00 0.00 0.00 50 1020.7
20220526062539 20 0 0.0 0.0 0.00 0.00 0.00 50 1020.7
20220526062038 19 0 0.0 0.0 0.00 0.00 0.00 50 1020.5
20220526061550 19 0 0.0 0.0 0.00 0.00 0.00 51 1020.4
20220526061041 19 0 0.0 0.0 0.00 0.00 0.00 51 1020.3
20220526060539 19 0 0.0 0.0 0.00 0.00 0.00 52 1020.2
20220526060100 19 0 0.0 0.0 0.00 0.00 0.00 53 1020.3
20220526055539 18 0 0.0 0.0 0.00 0.00 0.00 53 1020.1
20220526055041 18 0 0.0 0.0 0.00 0.00 0.00 53 1020.1
20220526054549 19 0 0.0 0.0 0.00 0.00 0.00 52 1020.2
20220526054040 19 0 0.0 0.0 0.00 0.00 0.00 52 1020.1
20220526053539 19 0 0.0 0.0 0.00 0.00 0.00 52 1020.2
20220526053100 19 0 0.0 0.0 0.00 0.00 0.00 52 1020.2
20220526052539 19 0 0.0 0.0 0.00 0.00 0.00 52 1020.2
20220526052040 19 0 0.0 0.0 0.00 0.00 0.00 52 1020.0
20220526051552 19 0 0.0 0.0 0.00 0.00 0.00 52 1020.0
20220526051039 19 0 0.0 0.0 0.00 0.00 0.00 52 1020.1
20220526050539 19 0 0.0 0.0 0.00 0.00 0.00 53 1020.0
20220526050058 18 0 0.0 0.0 0.00 0.00 0.00 55 1020.0
20220526045535 18 0 0.0 0.0 0.00 0.00 0.00 56 1020.0
20220526045040 18 0 0.0 0.0 0.00 0.00 0.00 57 1020.0
20220526044554 18 0 0.0 0.0 0.00 0.00 0.00 58 1020.0
20220526044040 18 0 0.0 0.0 0.00 0.00 0.00 58 1020.0
20220526043540 18 0 0.0 0.0 0.00 0.00 0.00 58 1019.8
20220526043054 18 0 0.0 0.0 0.00 0.00 0.00 58 1019.8
20220526042539 18 0 0.0 0.0 0.00 0.00 0.00 58 1019.7
20220526042041 18 0 0.0 0.0 0.00 0.00 0.00 59 1019.7
20220526041541 18 0 0.0 0.0 0.00 0.00 0.00 59 1019.7
20220526041038 18 0 0.0 0.0 0.00 0.00 0.00 59 1019.6
20220526040537 18 0 0.0 0.0 0.00 0.00 0.00 59 1019.7
20220526040051 18 0 0.0 0.0 0.00 0.00 0.00 59 1019.7
20220526035539 18 0 0.0 0.0 0.00 0.00 0.00 59 1019.5
20220526035037 18 0 0.0 0.0 0.00 0.00 0.00 59 1019.5
20220526034550 18 0 0.0 0.0 0.00 0.00 0.00 59 1019.5
20220526034039 18 0 0.0 0.0 0.00 0.00 0.00 59 1019.4
20220526033539 18 0 0.0 0.0 0.00 0.00 0.00 61 1019.5
20220526033043 18 0 0.0 0.0 0.00 0.00 0.00 61 1019.5
20220526032536 18 0 0.0 0.0 0.00 0.00 0.00 62 1019.4
20220526032037 19 0 0.0 0.0 0.00 0.00 0.00 66 1019.4
20220526031546 19 0 0.0 0.0 0.00 0.00 0.00 67 1019.4
20220526031036 19 0 0.0 0.0 0.00 0.00 0.00 67 1019.3
20220526030537 19 0 0.0 0.0 0.00 0.00 0.00 64 1019.3
20220526030049 19 0 0.0 0.0 0.00 0.00 0.00 61 1019.3
20220526025536 19 0 0.0 0.0 0.00 0.03 0.00 62 1019.1
20220526025039 19 0 0.0 0.0 0.00 0.03 0.00 64 1019.4
20220526024543 19 0 0.0 0.0 0.00 0.03 0.00 66 1019.4
20220526024036 19 0 0.0 0.0 0.00 0.03 0.00 65 1019.3
20220526023536 19 0 0.0 0.0 0.00 0.03 0.00 62 1019.2
20220526023056 19 0 0.0 0.0 0.00 0.03 0.00 58 1019.1
20220526022539 19 0 0.0 0.0 0.00 0.03 0.00 58 1019.2
20220526022040 19 0 0.0 0.0 0.00 0.03 0.00 58 1019.3
20220526021559 19 0 0.0 0.0 0.00 0.03 0.00 59 1019.0
20220526021036 19 0 0.0 0.0 0.00 0.03 0.00 59 1019.1
20220526020540 19 0 0.0 0.0 0.00 0.03 0.00 59 1019.1
20220526020053 19 0 0.0 0.0 0.00 0.03 0.00 59 1019.0
20220526015536 19 0 0.0 0.0 0.00 0.03 0.00 59 1019.1
20220526015036 19 0 0.0 0.0 0.00 0.03 0.00 61 1019.1
20220526014551 20 0 0.0 0.0 0.00 0.03 0.00 63 1018.9
20220526014043 20 0 0.0 0.0 0.00 0.03 0.00 61 1018.8
20220526013539 20 0 0.0 0.0 0.00 0.03 0.00 58 1018.9
20220526013100 20 0 0.0 0.0 0.00 0.03 0.00 59 1018.8
20220526012539 20 0 0.0 0.0 0.00 0.03 0.00 60 1018.8
20220526012050 20 0 0.0 0.0 0.00 0.03 0.00 60 1018.8
20220526011552 20 0 0.0 0.0 0.00 0.03 0.00 61 1018.9
20220526011039 20 0 0.0 0.0 0.00 0.03 0.00 60 1018.7
20220526010539 20 0 0.0 0.0 0.00 0.03 0.00 58 1018.9
20220526010058 20 0 0.0 0.0 0.00 0.03 0.00 58 1018.8
20220526005539 20 0 0.0 0.0 0.00 0.03 0.00 60 1018.8
20220526005041 20 0 0.0 0.0 0.00 0.03 0.00 60 1018.9
20220526004557 20 0 0.0 0.0 0.00 0.03 0.00 58 1018.9
20220526004039 20 0 0.0 0.0 0.00 0.03 0.00 58 1018.9
20220526003538 20 0 0.0 0.0 0.00 0.03 0.00 58 1018.9
20220526003105 20 0 0.0 0.0 0.00 0.03 0.00 59 1018.8
20220526002536 20 0 0.0 0.0 0.00 0.03 0.00 59 1018.8
20220526002039 20 0 0.0 0.0 0.00 0.03 0.00 61 1018.9
20220526001556 20 0 0.0 0.0 0.00 0.03 0.00 63 1018.9
20220526001042 20 0 0.0 0.0 0.00 0.03 0.00 64 1019.0
20220526000539 20 0 0.0 0.0 0.00 0.03 0.00 58 1019.1
20220526000049 20 0 0.0 0.0 0.00 0.03 0.00 58 1019.2
20220525235540 20 0 0.0 0.0 0.00 0.03 0.00 58 1019.1
20220525235040 20 0 0.0 0.0 0.00 0.03 0.00 57 1019.2
20220525234548 20 0 0.0 0.0 0.00 0.03 0.00 56 1019.3
20220525234039 20 0 0.0 0.0 0.00 0.03 0.00 56 1019.2
20220525233538 20 0 0.0 0.0 0.00 0.03 0.00 56 1019.2
20220525233046 20 0 0.0 0.0 0.00 0.03 0.00 56 1019.1
20220525232539 20 0 0.0 0.0 0.00 0.03 0.00 56 1019.1
20220525232039 20 0 0.0 0.0 0.00 0.03 0.00 56 1019.2
20220525231545 20 0 0.0 0.0 0.00 0.03 0.00 56 1019.2
20220525231036 20 0 0.0 0.0 0.00 0.03 0.00 57 1019.3
20220525230541 20 0 0.0 0.0 0.00 0.03 0.00 57 1019.4
20220525230100 20 0 0.0 0.0 0.00 0.03 0.00 57 1019.3
20220525225538 20 0 0.0 0.0 0.00 0.03 0.00 58 1019.2
20220525225043 20 0 0.0 0.0 0.00 0.03 0.00 60 1019.3
20220525224547 20 0 0.0 0.0 0.00 0.03 0.00 61 1019.2
20220525224036 20 0 0.0 0.0 0.00 0.03 0.00 62 1019.2
20220525223536 20 0 0.0 0.0 0.00 0.03 0.00 61 1019.2
20220525223055 20 0 0.0 0.0 0.00 0.03 0.00 61 1019.2
20220525222536 20 0 0.0 0.0 0.00 0.03 0.00 61 1019.2
20220525222038 20 0 0.0 0.0 0.00 0.03 0.00 60 1019.2
20220525221555 20 0 0.0 0.0 0.00 0.03 0.00 61 1019.3
20220525221037 20 0 0.0 0.0 0.00 0.03 0.00 60 1019.2
20220525220538 20 0 0.0 0.0 0.00 0.03 0.00 59 1019.3
20220525220059 20 0 0.0 0.0 0.00 0.03 0.00 59 1019.3
20220525215536 20 0 0.0 0.0 0.00 0.03 0.03 58 1019.4
20220525215036 20 0 0.0 0.0 0.00 0.03 0.03 57 1019.3
20220525214550 20 0 0.0 0.0 0.00 0.03 0.03 57 1019.4
20220525214036 21 0 0.0 0.0 0.00 0.03 0.03 56 1019.3
20220525213536 20 0 0.0 0.0 0.00 0.03 0.03 56 1019.2
20220525213115 21 0 0.0 0.0 0.00 0.03 0.03 56 1019.1
20220525212537 20 0 0.0 0.0 0.00 0.03 0.03 56 1019.1
20220525212037 21 0 0.0 0.0 0.00 0.03 0.03 56 1019.1
20220525211555 21 0 0.0 0.0 0.00 0.03 0.03 56 1019.1
20220525211038 21 0 0.0 0.0 0.00 0.03 0.03 56 1019.0
20220525210539 21 0 0.0 0.0 0.00 0.03 0.03 56 1019.1
20220525210103 21 0 0.0 0.0 0.00 0.03 0.03 56 1019.1
20220525205537 21 0 0.0 0.0 0.00 0.03 0.03 56 1019.1
20220525205036 21 0 0.0 0.0 0.00 0.03 0.03 56 1019.0
20220525204606 21 0 0.0 0.0 0.00 0.03 0.03 56 1019.0
20220525204037 21 0 0.0 0.0 0.00 0.03 0.03 57 1018.9
20220525203535 21 0 0.0 0.0 0.00 0.03 0.03 57 1018.8
20220525203103 21 0 0.0 0.0 0.00 0.03 0.03 57 1018.9
20220525202539 21 0 0.0 0.0 0.00 0.03 0.03 57 1018.7
20220525202042 21 0 0.0 0.0 0.00 0.03 0.03 57 1018.7
20220525201554 20 0 0.0 0.0 0.00 0.03 0.03 57 1018.6
20220525201043 20 0 0.0 0.0 0.00 0.03 0.03 57 1018.6
20220525200545 20 0 0.0 0.0 0.00 0.03 0.03 57 1018.6
20220525200054 20 0 0.0 0.0 0.00 0.03 0.03 58 1018.6
20220525195539 20 0 0.0 0.0 0.00 0.03 0.03 57 1018.6
20220525195039 20 0 0.0 0.0 0.00 0.03 0.03 58 1018.5
20220525194604 21 0 0.0 0.0 0.00 0.03 0.03 57 1018.3
20220525194040 21 0 0.0 0.0 0.00 0.03 0.03 57 1018.4
20220525193539 21 0 0.0 0.0 0.00 0.03 0.03 56 1018.3
20220525193051 21 0 0.0 0.0 0.00 0.03 0.03 56 1018.3
20220525192538 20 0 0.0 0.0 0.00 0.03 0.03 57 1018.3
20220525192038 20 0 0.0 0.0 0.00 0.03 0.03 58 1018.2
20220525191559 20 0 0.0 0.0 0.00 0.03 0.03 60 1018.1
20220525191039 20 0 0.0 0.0 0.00 0.03 0.03 62 1018.1
20220525190539 20 0 0.0 0.0 0.00 0.03 0.03 64 1018.0
20220525190057 20 0 0.0 0.0 0.00 0.03 0.03 63 1017.9
20220525185538 20 0 0.0 0.0 0.00 0.03 0.03 63 1018.0
20220525185038 20 0 0.0 0.0 0.00 0.03 0.03 63 1018.0
20220525184556 20 0 0.0 0.0 0.00 0.03 0.03 62 1018.0
20220525184038 20 0 0.0 0.0 0.00 0.03 0.03 61 1017.9
20220525183542 21 0 0.0 0.0 0.00 0.03 0.03 61 1017.8
20220525183042 21 0 0.0 0.0 0.00 0.03 0.03 62 1017.8
20220525182539 21 0 0.0 0.0 0.00 0.03 0.03 59 1017.7
20220525182037 21 0 0.0 0.0 0.00 0.03 0.03 55 1017.5
20220525181545 21 0 0.0 0.0 0.00 0.03 0.03 53 1017.5
20220525181046 21 0 0.0 0.0 0.00 0.03 0.03 53 1017.4
20220525180539 21 0 0.0 0.0 0.00 0.03 0.03 53 1017.4
20220525180116 21 0 0.0 0.0 0.00 0.03 0.03 53 1017.3
20220525175538 21 0 0.0 0.0 0.00 0.05 0.03 55 1017.2
20220525175038 21 0 0.0 0.0 0.00 0.05 0.03 57 1017.2
20220525174544 21 0 0.0 0.0 0.00 0.05 0.03 59 1017.2
20220525174038 21 0 0.0 0.0 0.00 0.05 0.03 59 1017.2
20220525173540 21 0 0.0 0.0 0.00 0.05 0.03 57 1017.1
20220525173058 21 0 0.0 0.0 0.00 0.05 0.03 53 1017.1
20220525172538 21 0 0.0 0.0 0.00 0.05 0.03 53 1017.1
20220525172041 21 0 0.0 0.0 0.00 0.05 0.03 53 1017.0
20220525171607 21 0 0.0 0.0 0.00 0.05 0.03 53 1016.9
20220525171038 21 0 0.0 0.0 0.00 0.05 0.03 53 1016.7
20220525170542 21 0 0.0 0.0 0.00 0.05 0.03 54 1016.6